Location: Burgwalden
(48.2830°N, 10.7576°E)
Time: 03:01:38
(UTC+00:00)

Cosmos 1378 - Pass Details

Date: 26 September 2023
Orbit: 448 x 451 km, 82.5° (Epoch: 04 December)

Event Time Altitude Azimuth Distance (km) Brightness Sun altitude
Rises 02:32:53 0° 134° (SE) 2,489 6.9 -25.6°
Enters shadow 03:45:50 -46° 189° (S) 9,841 9.6 -14.4°
Maximum altitude 04:11:09 63° 281° (W) 521 2.9 -10.3°
